Location: Sungai Igah
(2.7333°N, 114.2500°E)
Time: 10:43:25
(UTC+00:00)

CZ-3C R/B - Pass Details

Date: 14 June 2021
Orbit: 278 x 33473 km, 20.9° (Epoch: 04 August)

Event Time Altitude Azimuth Distance (km) Brightness Sun altitude
Rises 04:54:12 0° 251° (WSW) 14,411 8.0 68.1°
Reaches altitude 10° 05:05:21 10° 253° (WSW) 16,039 8.4 67.1°
Drops below altitude 10° 10:17:02 10° 280° (W) 36,550 11.9 2.5°
Enters shadow 13:48:02 49° 342° (NNW) 1,921 3.5 -44.1°
